Location: Bruderhein
(53.8035°N, 112.9265°W)
Time: 01:05:21
(UTC+00:00)

Gurwin Techsat 1B - Pass Details

Date: 21 April 2024
Orbit: 811 x 812 km, 98.9° (Epoch: 20 May)

Event Time Altitude Azimuth Distance (km) Brightness Sun altitude
Rises 09:57:56 0° 24° (NNE) 3,350 13.4 -17.0°
Reaches altitude 10° 10:00:52 10° 41° (NE) 2,412 12.4 -16.7°
Maximum altitude 10:04:52 21° 89° (E) 1,752 10.8 -16.4°
Drops below altitude 10° 10:08:50 10° 138° (SE) 2,399 11.0 -16.0°
Sets 10:11:44 0° 154° (SSE) 3,325 11.6 -15.7°
